Lebanon, NH

3:50 PM EST on December 06, 2019 (GMT -0500)
Lebanon Municipal

Weather History for KLEB - November, 2019

Change the Weather History Date:

Thursday, November 14, 2019

  Actual Average Record
Temperature  
Mean Temperature 21 °F -  
Max Temperature 30 °F 44 °F 66 °F (1973)
Min Temperature 12 °F 27 °F 7 °F (1986)
Degree Days  
Heating Degree Days 44    
Moisture  
Dew Point 14 °F    
Average Humidity 68    
Maximum Humidity 77    
Minimum Humidity 51    
Precipitation  
Precipitation 0.00 in - - ()
Sea Level Pressure  
Sea Level Pressure 30.38 in    
Wind  
Wind Speed 2 mph ()    
Max Wind Speed 12 mph    
Max Gust Speed 17 mph    
Visibility 10.0 miles    
Events      
Averages and records for this station are not official NWS values.
T = Trace of Precipitation, MM = Missing Value Source: Averaged Metar Reports

Daily Weather History Graph

Daily Weather History Graph

Search for Another Location

Airport or City:

Astronomy

Nov. 14, 2019 Rise Set
Actual Time 6:41 AM EST 4:25 PM EST
Civil Twilight 6:10 AM EST 4:55 PM EST
Nautical Twilight 5:36 AM EST 5:30 PM EST
Astronomical Twilight 5:02 AM EST 6:04 PM EST
Moon 6:06 PM EST (11/14) 8:36 AM EST (11/14)
Length of Visible Light 10h 45m
Length of Day
9h 43m
Waning Gibbous, 95% of the Moon is Illuminated
Nov 14
Waning Gibbous
Nov 19
Last Quarter
Nov 26
New
Dec 4
First Quarter
Dec 12
Full

Hourly Weather History & Observations

Time (EST) Temp. Windchill Dew Point Humidity Pressure Visibility Wind Dir Wind Speed Gust Speed Precip Events Conditions
12:53 AM 15.1 °F - 9.0 °F 77% 30.47 in 10.0 mi Calm Calm - N/A   Overcast
1:53 AM 15.1 °F - 9.0 °F 77% 30.48 in 10.0 mi Calm Calm - N/A   Overcast
2:53 AM 15.1 °F - 9.0 °F 77% 30.46 in 10.0 mi Calm Calm - N/A   Mostly Cloudy
3:53 AM 14.0 °F - 8.1 °F 77% 30.47 in 10.0 mi Calm Calm - N/A   Clear
4:53 AM 14.0 °F - 8.1 °F 77% 30.46 in 10.0 mi Calm Calm - N/A   Mostly Cloudy
5:53 AM 12.9 °F - 7.0 °F 77% 30.45 in 10.0 mi Calm Calm - N/A   Clear
6:53 AM 14.0 °F - 8.1 °F 77% 30.47 in 10.0 mi Calm Calm - N/A   Overcast
7:53 AM 16.0 °F - 8.1 °F 71% 30.48 in 10.0 mi Calm Calm - N/A   Overcast
8:53 AM 19.0 °F - 10.0 °F 68% 30.48 in 10.0 mi Calm Calm - N/A   Overcast
9:53 AM 21.0 °F - 10.0 °F 63% 30.45 in 10.0 mi Calm Calm - N/A   Overcast
10:53 AM 25.0 °F 16.3 °F 10.0 °F 53% 30.43 in 10.0 mi South 8.1 mph - N/A   Overcast
11:53 AM 27.0 °F 18.0 °F 10.9 °F 51% 30.40 in 10.0 mi SSW 9.2 mph - N/A   Overcast
12:53 PM 28.9 °F 19.2 °F 14.0 °F 54% 30.38 in 10.0 mi SSW 11.5 mph 17.3 mph N/A   Overcast
1:53 PM 30.0 °F 20.5 °F 17.1 °F 59% 30.35 in 10.0 mi South 11.5 mph - N/A   Overcast
2:53 PM 30.9 °F 22.2 °F 18.0 °F 59% 30.34 in 10.0 mi SSW 10.4 mph - N/A   Overcast
3:53 PM 30.9 °F 25.2 °F 19.0 °F 61% 30.32 in 10.0 mi South 5.8 mph - N/A   Overcast
4:53 PM 30.9 °F - 19.0 °F 61% 30.31 in 10.0 mi Calm Calm - N/A   Overcast
5:53 PM 30.0 °F 25.2 °F 19.9 °F 66% 30.30 in 10.0 mi NE 4.6 mph - N/A   Overcast
6:53 PM 28.9 °F 21.9 °F 19.0 °F 67% 30.29 in 10.0 mi NE 6.9 mph - N/A   Scattered Clouds
7:53 PM 28.0 °F - 19.0 °F 69% 30.28 in 10.0 mi Calm Calm - N/A   Mostly Cloudy
8:53 PM 28.0 °F 20.8 °F 19.0 °F 69% 30.27 in 10.0 mi NE 6.9 mph - N/A   Scattered Clouds
9:53 PM 28.0 °F 21.7 °F 19.9 °F 72% 30.26 in 10.0 mi NE 5.8 mph - N/A   Partly Cloudy
10:53 PM 28.0 °F - 21.0 °F 75% 30.25 in 10.0 mi Calm Calm - N/A   Overcast
11:53 PM 28.9 °F 25.2 °F 21.0 °F 72% 30.23 in 10.0 mi NE 3.5 mph - N/A   Overcast